sat.trackr.live / text

‹ back to catalog

STARLINK-5155

NORAD 54170 · 2022-141P

PAYLOAD ACTIVE UNKNOWN

§ Identity

Operator
Country
US
Launch date
2022-10-28
Launch site
AFWTR
Launch vehicle
Mass (kg)
RCS (m²)

Purposes: comms

External: N2YO · Heavens-Above · Gunter

§ Orbital elements

Epoch: 2026-09-19T12:25:46.648128Z

Period
93.85 min
Inclination
53.1604°
Eccentricity
0.0001302
Mean motion
15.34391077 rev/d
Perigee alt
461.8 km
Apogee alt
463.6 km
Semi-major
6,840.9 km
B*
2.0068e-5
RAAN
198.2855°
Arg perigee
93.8983°
Mean anomaly
266.2169°
Rev number
21,533

§ Raw data

STARLINK-51551 54170U 22141P   26262.51790102  .00000302  00000+0  20068-4 0  99942 54170  53.1604 198.2855 0001302  93.8983 266.2169 15.34391077215338

JSON: /api/v1/satellites/54170 · /tle

For live sub-satellite position, see the globe view (requires WebGL).

§ Visibility from observer

Set your observer location to see the next 7 days of passes ≥ 10°. The values pass through the URL so the page stays shareable.

No JS? Fill the form by hand. The geolocation button needs JavaScript.